Tracking 18874 objects as of 17-Dec-2017
HD Live streaming from Space Station
objects crossing your sky now

VANGUARD R/B

Track VANGUARD R/B now!
10-day predictions


NORAD ID: 12
Int'l Code: 1959-001B
Perigee: 563.0 km
Apogee: 3,333.4 km
Inclination: 32.9 °
Period: 125.9 minutes
Semi major axis: 8319 km
RCS: 0.5381 m2 (medium)
Launch date: February 17, 1959
Source: United States (US)
Launch site: AIR FORCE EASTERN TEST RANGE (AFETR)

Note: This is a ROCKET BODY
aabbcc
Your satellite tracking list
Your tracking list is empty




NASA's NSSDC Master Catalog

Two Line Element Set (TLE):
1 00012U 59001B   17350.90280880  .00000170  00000-0  88765-4 0  9995
2 00012  32.9090 306.9684 1665087 313.3522  33.9568 11.44150435417886
Source of the keplerian elements: AFSPC